Location: Juzet
(42.9779°N, 0.7597°E)
Time: 01:12:47
(UTC+00:00)

Cosmos 2208 Rocket - Pass Details

Date: 14 July 2020
Orbit: 754 x 806 km, 74.0° (Epoch: 11 August)

Event Time Altitude Azimuth Distance (km) Brightness Sun altitude
Rises 03:45:36 0° 338° (NNW) 3,313 7.5 -7.6°
Reaches altitude 10° 03:48:02 10° 338° (NNW) 2,373 6.8 -7.3°
Maximum altitude 03:53:26 81° 252° (WSW) 802 4.1 -6.5°
Drops below altitude 10° 03:58:43 10° 166° (SSE) 2,323 6.3 -5.7°
Sets 04:01:04 0° 165° (SSE) 3,238 7.0 -5.4°
